• Processing (Info)

  • MPEC 2006-B62 : 2006 BV39

    The following Minor Planet Electronic Circular may be linked-to from your own Web pages, but must not otherwise be redistributed electronically.

    A form allowing access to any MPEC is at the bottom of this page.


    Read MPEC 2006-B61 Read MPEC 2006-B63


    M.P.E.C. 2006-B62                                Issued 2006 Jan. 26, 23:12 UT
    
         The Minor Planet Electronic Circulars contain information on unusual
             minor planets and routine data on comets.  They are published
       on behalf of Commission 20 of the International Astronomical Union by the
              Minor Planet Center, Smithsonian Astrophysical Observatory,
                              Cambridge, MA 02138, U.S.A.
    
                      Supported in part by the Brinson Foundation
                      Supported in part by the TABASGO Foundation
                 Prepared using the Tamkin Foundation Computer Network
    
                                  MPC@CFA.HARVARD.EDU
              URL http://cfa-www.harvard.edu/iau/mpc.html  ISSN 1523-6714
    
                                       2006 BV39
    
    Observations:
         K06B39V*tC2006 01 26.33340 09 03 30.93 +15 19 33.1          19.7 V EB062291
         K06B39V tC2006 01 26.33742 09 03 36.23 +15 19 17.6          19.6 V EB062291
         K06B39V tC2006 01 26.34165 09 03 42.17 +15 18 59.7          19.7 V EB062291
         K06B39V tC2006 01 26.41291 09 05 23.58 +15 13 35.9          19.8 V EB062291
         K06B39V tC2006 01 26.41698 09 05 29.67 +15 13 15.6          19.3 V EB062291
         K06B39V tC2006 01 26.42092 09 05 35.65 +15 12 55.7          19.4 V EB062291
         K06B39V tC2006 01 26.51042 09 08 03.59 +15 04 24.5          19.8 V EB062291
         K06B39V tC2006 01 26.51456 09 08 11.17 +15 03 59.6          19.1 V EB062291
         K06B39V tC2006 01 26.51853 09 08 18.49 +15 03 33.3          19.0 V EB062291
         K06B39V tC2006 01 26.94495 09 28 01.73 +14 10 59.3                 EB062246
         K06B39V tC2006 01 26.94530 09 28 02.83 +14 10 55.7                 EB062246
         K06B39V tC2006 01 26.94607 09 28 05.01 +14 10 48.3                 EB062246
         K06B39V tC2006 01 26.94673 09 28 06.96 +14 10 43.4                 EB062246
    
    Observer details:
    246 Klet Observatory-KLENOT.  Observer M. Tichy.  1.06-m KLENOT Telescope
        + CCD.
    291 LPL/Spacewatch II.  Observers T. H. Bressi, M. T. Read.  1.8-m f/2.7
        reflector + CCD.
    
    Orbital elements:
    2006 BV39                                                Earth MOID = 0.0003 AU
    Epoch 2006 Mar. 6.0 TT = JDT 2453800.5                  MPC
    M 343.81202              (2000.0)            P               Q
    n   0.80378117     Peri.   75.04627     -0.92685393     +0.37527983
    a   1.1456294      Node   126.99427     -0.34922537     -0.85174752
    e   0.2730303      Incl.    0.74149     -0.13778036     -0.36563809
    P   1.23           H   29.2           G   0.15           U   7
    Residuals in seconds of arc
    060126 291  0.7+  0.5-    060126 291  0.1-  0.1+    060126 246  1.5+  0.7-
    060126 291  1.5-  0.0     060126 291  0.1-  1.0-    060126 246  0.2-  1.1-
    060126 291  1.1+  0.7-    060126 291  0.8+  0.0     060126 246  0.5-  0.0
    060126 291  0.0   0.4-    060126 291  1.6+  1.2-
    060126 291  0.4-  0.1-    060126 246  0.7+  0.2-
    
    Ephemeris:
    2006 BV39                a,e,i = 1.17, 0.28, 1                   q = 0.8438
    Date    TT    R. A. (2000) Decl.     Delta      r     Elong.  Phase     V
    2006 01 25    08 40.40   +16 12.2    0.0153   1.000   176.0     4.0    20.5
    2006 01 26    08 55.33   +15 42.1    0.0108   0.995   173.8     6.2    19.8
    2006 01 27    09 30.76   +14 15.3    0.00641  0.991   166.4    13.5    19.0
    2006 01 28    11 58.10   +04 56.3    0.00268  0.987   130.1    49.8    18.2
    2006 01 29    17 35.38   -16 36.4    0.00390  0.982    45.2   134.7    23.3
    2006 01 30    18 56.31   -17 45.0    0.00807  0.978    26.9   152.9    27.7
    
    Timothy B. Spahr             (C) Copyright 2006 MPC           M.P.E.C. 2006-B62
    

    Read MPEC 2006-B61 Read MPEC 2006-B63


    MPEC number:

    Enter an MPEC number in one of the following forms:

    • 1997-B01 (the full form)
    • J97B01 (the packed version of the full form)
    • B01 (the abbreviated form)